Belize, Belize

11:00 PM CST on February 07, 2016 (GMT -0600)
Belize

Weather History for 78583 - November, 2013

Change the Weather History Date:

Thursday, November 21, 2013

  Actual Average Record
Temperature  
Mean Temperature 80 °F -  
Max Temperature 86 °F 83 °F - ()
Min Temperature 74 °F 70 °F - ()
Cooling Degree Days 15    
Growing Degree Days 30 (Base 50)    
Moisture  
Dew Point 76 °F    
Average Humidity 83    
Maximum Humidity 100    
Minimum Humidity 69    
Precipitation  
Precipitation 0.04 in 0.23 in - ()
Sea Level Pressure  
Sea Level Pressure 29.95 in    
Wind  
Wind Speed 3 mph ()    
Max Wind Speed 10 mph    
Max Gust Speed -    
Visibility 8.7 miles    
Events Rain    
T = Trace of Precipitation, MM = Missing Value Source: Averaged Metar Reports

Daily Weather History Graph

Daily Weather History Graph

Search for Another Location

Airport or City:

Trip Planner

Search our weather history database for the weather conditions in past years. The results will help you decide how hot, cold, wet, or windy it might be!

Date:

Astronomy

Nov. 21, 2013 Rise Set
Actual Time 6:01 AM CST 5:16 PM CST
Civil Twilight 5:38 AM CST 5:39 PM CST
Nautical Twilight 5:12 AM CST 6:06 PM CST
Astronomical Twilight 4:45 AM CST 6:32 PM CST
Moon 8:48 PM CST (11/21) 9:11 AM CST (11/21)
Length of Visible Light 12h 00m
Length of Day
11h 14m
Waning Gibbous, 85% of the Moon is Illuminated
Nov 21
Waning Gibbous
Nov 25
Last Quarter
Dec 2
New
Dec 9
First Quarter
Dec 17
Full

Hourly Weather History & Observations

Time (CST) Temp. Heat Index Dew Point Humidity Pressure Visibility Wind Dir Wind Speed Gust Speed Precip Events Conditions
12:00 AM 76 °F - 74 °F 93% 29.94 in 12 mi Calm Calm - -   Scattered Clouds
3:00 AM 76 °F - 74 °F 94% 29.93 in 12 mi Calm Calm - -   Partly Cloudy
5:00 AM 75.2 °F - 73.4 °F 94% 29.92 in 6.2 mi NW 3.5 mph - N/A   Scattered Clouds
6:00 AM 75 °F - 74 °F 95% 29.95 in 12 mi Calm Calm - -   Mostly Cloudy
7:00 AM 75.2 °F - 75.2 °F 100% 29.95 in 6.2 mi WSW 2.3 mph - N/A   Scattered Clouds
9:00 AM 82 °F - 78 °F 83% 30.00 in 12 mi Calm Calm - - Rain Light Rain Showers
9:00 AM 82.4 °F 90.9 °F 77.0 °F 84% 30.00 in 6.2 mi Calm Calm - N/A   Mostly Cloudy
10:00 AM 84.2 °F 94.1 °F 77.0 °F 79% 29.99 in 6.2 mi East 8.1 mph - N/A   Scattered Clouds
11:00 AM 86.0 °F 95.1 °F 75.2 °F 70% 29.97 in 6.2 mi East 10.4 mph - N/A   Scattered Clouds
12:00 PM 85 °F - 78 °F 73% 29.96 in 12 mi ESE 5.8 mph - - Rain Light Rain Showers
12:00 PM 84.2 °F 94.1 °F 77.0 °F 79% 29.95 in 6.2 mi ESE 5.8 mph - N/A   Scattered Clouds
1:00 PM 84.2 °F 94.1 °F 77.0 °F 79% 29.93 in 6.2 mi East 9.2 mph - N/A   Scattered Clouds
2:00 PM 86.0 °F 96.9 °F 77.0 °F 74% 29.92 in 6.2 mi East 6.9 mph - N/A   Scattered Clouds
3:00 PM 85 °F - 76 °F 69% 29.91 in 14 mi ESE 5.8 mph - -   Partly Cloudy
3:00 PM 86.0 °F 96.9 °F 77.0 °F 74% 29.91 in 6.2 mi ESE 5.8 mph - N/A   Scattered Clouds
4:00 PM 84.2 °F 92.3 °F 75.2 °F 74% 29.91 in 6.2 mi East 6.9 mph - N/A   Scattered Clouds
5:00 PM 80.6 °F 86.2 °F 75.2 °F 84% 29.92 in 6.2 mi East 3.5 mph - N/A   Mostly Cloudy
6:00 PM 80 °F - 76 °F 82% 29.94 in 14 mi East 2.3 mph - -   Partly Cloudy
6:00 PM 78.8 °F - 75.2 °F 89% 29.94 in 6.2 mi East 2.3 mph - N/A   Mostly Cloudy
9:00 PM 78 °F - 76 °F 91% 29.99 in 12 mi 1.2 mph - -   Scattered Clouds